User: anonymous   Login
Location: Unspecified
(0.0000°N, 0.0000°E)
Time: 07:44:56
(UTC+00:00)
Language:

STARLINK-35692 - Orbit

View from above orbital plane
View from above orbital plane
View from above satellite
View from above satellite

Ground track
Ground track

The orbit is defined by the following mean orbital elements,

1 66513U          26145.62702352 +.00000000 +00000-0 +12409-2 0 00007
2 66513  43.0025 276.3443 0002012 270.4325  89.6296 15.27595012    01
Epoch (UTC): 25 May 2026 15:02:54
Eccentricity: 0.0002012
inclination: 43.0025°
perigee height: 482 km
apogee height: 484 km
right ascension of ascending node: 276.3443°
argument of perigee: 270.4325°
revolutions per day: 15.27595012
mean anomaly at epoch: 89.6296°

The dashed part of the orbit path shows where the satellite is in the earth's shadow,  

DLR